www.pogodaiklimat.ru

Погода и климат >> Архив погоды >> Таиланд >> Накхонпатхом


ПОГОДА в Накхонпатхоме

  • Прогноз погоды в Накхонпатхоме
  • Монитор погоды в Накхонпатхоме

АРХИВ ПОГОДЫ в Накхонпатхоме

Время (UTC), дата Ветер
(напр.,м/с)
 
Видим.   Явления Облачность Т
(С)
Тd
(С)
f
(%)
Тe
(С)
Тes
(С)
Комфортность P
(гПа)
Po
(гПа)
Тmin
(С)
Tmax
(С)
R
(мм)
R24
(мм)
S
(см)
00 17.01 штиль 0 500 м туман местами ясно +22.2 +22.2 100 +30 +30 очень
душно
1012.4 1011.2 +21.5
03 17.01 В 1 10 км {туман} ясно +29.0 +22.4 68 +38 +50 очень
душно
1014.1 1013.0
06 17.01 штиль 0 10 км {туман} ясно +31.2 +22.4 60 +41 +61 опасность
перегрева
1011.9 1010.8
09 17.01 С 1 10 км ясно +31.6 +22.2 58 +41 +46 опасность
перегрева
1010.0 1008.9
12 17.01 штиль 0 10 км ясно +28.0 +22.9 74 +37 +37 очень
душно
1010.9 1009.7 +31.8
15 17.01 штиль 0 10 км 3/0
[Cs]
+25.2 +22.7 86 +33 +33 очень
душно
1012.5 1011.4
18 17.01 штиль 0 10 км 3/0
[Cs]
+24.2 +21.6 85 +31 +31 очень
душно
1012.2 1011.1
21 17.01 штиль 0 10 км 3/0
[Cs]
+24.0 +20.1 79 +30 +30 очень
душно
1011.4 1010.3
00 18.01 СЗ 2 10 км 10/3 600 м
[Cb cap Ac As]
+22.8 +22.5 98 +31 +31 очень
душно
1013.0 1011.9 +22.6
03 18.01 СЗ 2 10 км {дождь} 10/4 600 м
[Cb cap Ac As]
+23.0 +20.2 84 +30 +32 очень
душно
1015.8 1014.7 0.0
06 18.01 С 2 10 км {дождь} 10/6 600 м
[Cb cap Ac cuf]
+26.0 +19.3 67 +31 +33 очень
душно
1013.9 1012.8 0.0
09 18.01 штиль 0 10 км 8/3 600 м
[Sc Ac As]
+26.9 +20.8 69 +34 +36 очень
душно
1011.2 1010.1
12 18.01 штиль 0 10 км 10/0
[Ac und]
+24.5 +20.7 79 +30 +30 очень
душно
1012.3 1011.2 +26.9
15 18.01 штиль 0 10 км 10/0
[Ac und]
+23.6 +20.4 82 +29 +29 душно 1013.9 1012.8
18 18.01 штиль 0 10 км 8/0
[Ac As]
+22.8 +21.3 91 +30 +30 очень
душно
1013.3 1012.2
21 18.01 штиль 0 10 км 8/0
[Ac As]
+22.2 +21.3 95 +29 +29 очень
душно
1011.9 1010.7
00 19.01 СЗ 2 10 км 10/10 600 м
[Sc]
+22.7 +20.5 87 +29 +29 очень
душно
1013.0 1011.9 +22.1
03 19.01 СВ 2 10 км 8/8 600 м
[Cb calv]
+26.7 +19.6 65 +32 +34 очень
душно
1014.9 1013.7
06 19.01 С 2 10 км ясно +29.8 +21.5 61 +38 +53 опасность
солнечного
удара
1012.6 1011.5
09 19.01 штиль 0 10 км 9/4 600 м
[Sc Ac As]
+30.3 +22.4 63 +40 +41 очень
душно
1010.4 1009.3
12 19.01 штиль 0 10 км 10/4 600 м
[Sc Ac As]
+27.7 +23.0 76 +37 +37 очень
душно
1011.6 1010.5 +30.7
15 19.01 штиль 0 10 км ясно +24.9 +22.7 88 +33 +33 очень
душно
1012.9 1011.8
18 19.01 штиль 0 10 км 4/0
[Ac und]
+22.2 +22.0 99 +29 +29 очень
душно
1012.6 1011.5
21 19.01 штиль 0 10 км 8/4 600 м
[Sc Ac und]
+22.9 +22.1 95 +31 +31 очень
душно
1011.4 1010.3
00 20.01 штиль 0 10 км 3/0
[Cs]
+22.0 +21.2 95 +28 +29 душно 1012.8 1011.7 +21.5
03 20.01 штиль 0 10 км 4/0
[Cs]
+28.0 +22.1 70 +36 +49 очень
душно
1014.3 1013.2
06 20.01 СВ 1 10 км 4/0
[Cs]
+32.0 +21.7 55 +41 +57 опасность
перегрева
1013.1 1012.0
09 20.01 штиль 0 10 км 3/0
[Cs]
+33.0 +22.0 52 +41 +47 опасность
перегрева
1009.4 1008.3
12 20.01 штиль 0 10 км 3/0
[Cs]
+29.0 +23.2 71 +39 +39 очень
душно
1010.2 1009.0 +33.2
15 20.01 штиль 0 10 км 3/0
[Cs]
+24.2 +22.7 91 +32 +32 очень
душно
1011.9 1010.8
18 20.01 штиль 0 10 км 3/0
[Cs]
+23.5 +22.0 91 +30 +30 очень
душно
1011.7 1010.6
21 20.01 штиль 0 10 км 3/0
[Cs]
+22.0 +22.0 100 +29 +29 очень
душно
1011.2 1010.0
00 21.01 штиль 0 100 м туман 5/0
[Cs]
+21.1 +21.1 100 +26 +27 душно 1012.9 1011.8 +19.5
03 21.01 штиль 0 8000 м дымка {туман} 4/0
[Cs]
+29.3 +23.0 69 +39 +52 опасность
солнечного
удара
1014.8 1013.7
06 21.01 СВ 1 10 км {туман} 4/0
[Cs]
+32.3 +23.0 58 +42 +59 опасность
перегрева
1012.3 1011.2
09 21.01 СВ 2 10 км 4/0
[Cs]
+32.6 +22.9 57 +43 +47 опасность
перегрева
1010.1 1009.0
12 21.01 штиль 0 10 км 3/0
[Cs]
+28.9 +23.8 74 +40 +40 очень
душно
1011.4 1010.3 +33.3
15 21.01 штиль 0 10 км 9/0
[Ac As]
+25.3 +23.7 91 +34 +34 очень
душно
1013.1 1012.0
18 21.01 штиль 0 7000 м дымка 3/0
[Cs]
+23.5 +23.0 97 +31 +31 очень
душно
1013.0 1011.8
21 21.01 штиль 0 7000 м дымка 5/0
[Ac As]
+23.4 +22.9 97 +33 +33 очень
душно
1012.3 1011.2
00 22.01 штиль 0 800 м туман 3/0
[Ac cast]
+22.8 +22.6 99 +31 +31 очень
душно
1014.1 1012.9 +22.2
03 22.01 СВ 2 6000 м дымка {туман} 1/1 600 м
[Cu hum]
+29.0 +24.9 79 +42 +51 опасность
перегрева
1016.0 1014.9
06 22.01 СВ 2 8000 м мгла {туман} 3/0
[Cs]
+31.1 +22.6 61 +41 +55 опасность
перегрева
1013.9 1012.8
09 22.01 С 2 8000 м мгла 3/0
[Cs]
+30.8 +22.3 61 +40 +44 очень
душно
1011.8 1010.7
12 22.01 штиль 0 8000 м дымка 8/0
[Cs]
+27.0 +23.8 83 +37 +37 очень
душно
1012.7 1011.6 +31.4
15 22.01 штиль 0 8000 м дымка 5/3 600 м
[Sc Ac cast Ci fib]
+23.9 +21.8 88 +31 +31 очень
душно
1014.3 1013.1
18 22.01 СЗ 2 8000 м дымка 5/3 600 м
[Sc Cs]
+22.8 +21.3 91 +30 +30 очень
душно
1014.0 1012.8
21 22.01 штиль 0 8000 м дымка 9/5 600 м
[Sc Cs]
+21.2 +20.6 96 +26 +26 душно 1013.6 1012.4
00 23.01 штиль 0 7000 м дымка 5/0
[Cs]
+20.0 +20.0 100 +23 +24 комфорт 1014.9 1013.7 +19.0
03 23.01 С 1 10 км 3/0
[Cs]
+27.2 +20.0 65 +33 +44 очень
душно
1016.2 1015.1
06 23.01 В 2 10 км 3/0
[Cs]
+30.0 +20.2 56 +37 +51 опасность
солнечного
удара
1014.5 1013.4
09 23.01 штиль 0 10 км 3/0
[Cs]
+31.5 +19.3 48 +37 +43 очень
душно
1011.5 1010.4
12 23.01 штиль 0 10 км 5/0
[Cs]
+27.0 +20.6 68 +34 +34 очень
душно
1012.7 1011.6 +31.5
15 23.01 штиль 0 10 км 5/0
[Cs]
+22.5 +21.7 95 +30 +30 очень
душно
1013.7 1012.6
18 23.01 штиль 0 10 км 5/0
[Cs]
+20.5 +20.5 100 +25 +25 комфорт 1013.4 1012.3
21 23.01 штиль 0 10 км 5/0
[Cs]
+19.5 +19.5 100 +22 +22 комфорт 1012.9 1011.8

 

Местоположение метеостанции Накхонпатхом (Таиланд): широта 14.02 долгота 99.97 высота над уровнем моря 10 м.

В архиве по умолчанию представлена погода в Накхонпатхоме за последнюю неделю. Архивные данные за месяц целиком и за предыдущие месяцы, начиная с января 2011 года, Вы можете получить, выбрав интересующий диапазон дат из раскрывающегося списка и нажав кнопку "Ввод!".


*Определитесь, кто Вы:
робот инопланетянин человек

Внимание! Время в таблицах - всемирное. Для получения местного времени необходимо прибавить поправку, которая равна 7 ч.

Смотрите также архив погоды в соседних городах и на ближайших метеорологических станциях:

Погода в У-Тхонг Агромете (Таиланд) (33 км)
Погода в Канчанабури (Таиланд) (47 км)
Погода в Суфанбури (Таиланд) (53 км)
Погода в Самутсонгкхраме (Таиланд) (68 км)
Погода в Дон Муанг (Таиланд) (69 км)
Погода в Патхумтхани (Таиланд) (71 км)
Погода в Бангкоке (Таиланд) (71 км)
Погода в Бангкоке 2 (Таиланд) (74 км)
Погода в Бангна Агромете (Таиланд) (80 км)
Погода в Аэропорту Суварнабхуми (Таиланд) (93 км)

Пояснения к столбцам:

Ветер - указаны скорость ветра в м/с - средняя за 10 мин, порывы в срок и между сроками (в фигурных скобках) и направление, откуда дует ветер: С - северный, СВ - северо-восточный, В - восточный, ЮВ - юго-восточный, Ю - южный, ЮЗ - юго-западный, З - западный, СЗ - северо-западный.
Видимость - горизонтальная дальность видимости в метрах или километрах. При видимости от 1 до 10 км при отсутствии осадков обычно наблюдается дымка, при ухудшении видимости до 1 км и менее - туман. В сухую погоду видимость может ухудшаться дымом, пылью или мглою.
Явления - указаны атмосферные явления, наблюдавшиеся в срок или в последний час перед сроком; фигурными скобками обозначены явления, наблюдавшиеся между сроками (за 1-3 часа до срока); квадратными скобками обозначены град или гололедные отложения с указанием их диаметра в мм.
Облачность - указаны через наклонную черту общая и нижняя облачность в баллах и высота нижней границы облаков в метрах; квадратными скобками обозначены формы облаков: Ci - перистые, Cs - перисто-слоистые, Cc - перисто-кучевые, Ac - высококучевые, As - высокослоистые, Sc - слоисто-кучевые, Ns - слоисто-дождевые, Cu - кучевые, Cb - кучево-дождевые. Подробнее классификацию облаков см. в Атласе облаков (PDF).
T - Температура воздуха - температура, измеренная на высоте 2 м над землей.
Td - Температура точки росы - температура, при понижении до которой содержащийся в воздухе водяной пар достигнет насыщения.
f - Относительная влажность воздуха - влажноcть воздуха, измеренная на высоте 2 м над землей.
Te - Эффективная температура - температура, которую ощущает одетый по сезону человек в тени. Характеристика душности погоды. При расчете учитывается влияние влажности воздуха и скорости ветра на теплоощущения человека.
Tes - Эффективная температура на солнце - температура, которую ощущает человек, с поправкой на солнечный нагрев. Характеристика знойности погоды. Зависит от высоты солнца над горизонтом, облачности и скорости ветра. Ночью, в пасмурную погоду, а также при ветре 12 м/с и более поправка равна нулю.
P - Атмосферное давление - приведенное к уровню моря атмосферное давление.
Po - Атмосферное давление - измеренное на уровне метеостанции атмосферное давление.
Tmin - Минимальная температура - минимум температуры воздуха на высоте 2 м над землей.
Tmax - Максимальная температура - максимум температуры воздуха на высоте 2 м над землей.
R - Количество осадков - Количество выпавших осадков за период времени, мм. При наведении курсора мыши на число - период времени, за который выпало указанное количество осадков.
R24 - Количество осадков - Количество выпавших осадков за 24 часа, мм.
S - Снежный покров - Высота снежного покрова, см. При наведении курсора мыши на число - состояние снежного покрова и степень покрытия местности в баллах.